haerbin , China , ASIA

  • Monday
    December 10

      Sunny

      -4 °F

      West

       

  • Tuesday
    December 11

    Cloudy  Sunny

    14 °F  -0 °F

    South  Southwest

        

  • Wednesday
    December 12

    Cloudy  Snow flurry

    18 °F  7 °F

    Southwest  Northwest

       3~4L 

  • Thursday
    December 13

    Snow flurry  Sunny

    16 °F  1 °F

    Northwest  West

    3~4L    

  • Friday
    December 14

    Sunny  Sunny

    21 °F  12 °F

    Southwest  Southwest

    3~4L   3~4L 

  • Saturday
    December 15

    Cloudy  Cloudy

    32 °F  10 °F

    Southwest  Northwest

    4~5L   3~4L 

  • Sunday
    December 16

    Cloudy  Sunny

    19 °F  3 °F

    Northwest  Southwest

    3~4L   3~4L 

Date   Weather Temperature Humidity Total_rain Visibility Wind
23:00 Sunny -1°F 87% 0mm 999.9km Northwest  -0.3m/s
02:00 Sunny -1°F 87.9% 0mm 999.9km Northeast  -0.1m/s
05:00 Sunny -3°F 89.4% 0mm 999.9km Northwest  0.4m/s
08:00 Sunny -4°F 90.2% 0mm 999.9km Northeast  0.3m/s
11:00 Cloudy 9°F 87.3% 0mm 999.9km Southeast  1.0m/s
14:00 Cloudy 14°F 83% 0mm 999.9km Southwest  1.2m/s
17:00 Cloudy 9°F 82.3% 0mm 999.9km Northwest  0.7m/s
20:00 Cloudy 5°F 67.6% 0mm 999.9km Northeast  0.4m/s
23:00 Sunny 7°F 81.3% 0mm 999.9km Southwest  0.1m/s
02:00 Sunny 5°F 82.9% 0mm 999.9km Southwest  0.5m/s
05:00 Sunny -0°F 83.1% 0mm 999.9km Southwest  0.3m/s
08:00 Sunny 2°F 81.6% 0mm 999.9km Southwest  0.4m/s
11:00 Cloudy 13°F 75.8% 0mm 999.9km Southwest  2.2m/s
14:00 Cloudy 17°F 71.8% 0mm 999.9km Southwest  2.4m/s
17:00 Cloudy 15°F 72.7% 0mm 999.9km Southwest  1.1m/s
20:00 Cloudy 9°F 63.6% 0mm 999.9km Southwest  0.6m/s
23:00 Light snow 9°F 76.6% 0.1mm 999.9km Southeast  0.7m/s
02:00 Light snow 8°F 80.7% 0.1mm 999.9km Northeast  0.3m/s
05:00 Overcast 8°F 83.4% 0mm 999.9km Northwest  0.6m/s
08:00 Cloudy 7°F 82.9% 0mm 999.9km Northwest  0.7m/s
11:00 Light snow 13°F 74.6% 0.1mm 999.9km Northwest  1.9m/s
14:00 Light snow 15°F 71.7% 0.1mm 999.9km Northwest  2.7m/s
17:00 Cloudy 13°F 75.5% 0mm 999.9km Northwest  1.5m/s
20:00 Cloudy 11°F 63.1% 0mm 999.9km Southwest  1.5m/s
23:00 Sunny 6°F 82% 0mm 999.9km Southwest  1.0m/s
02:00 Sunny 3°F 82.4% 0mm 999.9km Southwest  1.3m/s
05:00 Sunny 2°F 82.8% 0mm 999.9km Southwest  1.3m/s
08:00 Sunny 4°F 81.5% 0mm 999.9km Southwest  1.7m/s
11:00 Sunny 19°F 81.3% 0mm 999.9km Southwest  2.6m/s
14:00 Sunny 21°F 78.9% 0mm 999.9km Southwest  3.3m/s
17:00 Sunny 18°F 78.5% 0mm 999.9km Southwest  2.0m/s
20:00 Sunny 15°F 70.8% 0mm 999.9km Southwest  2.3m/s
23:00 Sunny 15°F 83.5% 0mm 999.9km Southwest  2.9m/s
02:00 Sunny 13°F 83.7% 0mm 999.9km Southwest  2.6m/s
05:00 Sunny 14°F 84% 0mm 999.9km Southwest  2.4m/s
08:00 Sunny 17°F 81.7% 0mm 999.9km Southwest  2.0m/s
11:00 Cloudy 30°F 79.5% 0mm 999.9km Southwest  2.7m/s
14:00 Cloudy 32°F 79.8% 0mm 999.9km Southwest  3.1m/s
17:00 Cloudy 26°F 75.8% 0mm 999.9km Southwest  2.4m/s
20:00 Cloudy 26°F 73.8% 0mm 999.9km Northwest  2.2m/s
23:00 Cloudy 16°F 80.7% 0mm 999.9km Northwest  1.5m/s
02:00 Cloudy 14°F 84.5% 0mm 999.9km Northwest  2.0m/s
05:00 Cloudy 11°F 82.9% 0mm 999.9km Southwest  2.0m/s
08:00 Cloudy 12°F 82.3% 0mm 999.9km Northwest  1.7m/s
11:00 Cloudy 17°F 78.3% 0mm 999.9km Northwest  3.0m/s
14:00 Cloudy 19°F 78.8% 0mm 999.9km Northwest  3.2m/s
17:00 Cloudy 17°F 72% 0mm 999.9km Southwest  1.6m/s
20:00 Cloudy 15°F 68.8% 0mm 999.9km Southwest  1.6m/s
23:00 Sunny 12°F 80.5% 0mm 999.9km Southwest  2.3m/s
02:00 Sunny 7°F 78.8% 0mm 999.9km Southwest  1.8m/s
05:00 Sunny 4°F 77% 0mm 999.9km Southwest  1.5m/s